Time,TemperatureF,DewpointF,PressureIn,WindDirection,WindDirectionDegrees,WindSpeedMPH,WindSpeedGustMPH,Humidity,HourlyPrecipIn,Conditions,Clouds,dailyrainin,SoftwareType,DateUTC
2013-11-07 00:11:00,27.5,24.0,30.10,West,271,0.0,-999.0,87,-99.99,,,0.00,weatherlink.com 1.10,2013-11-07 06:11:00,
2013-11-07 00:26:00,27.9,25.0,30.10,SW,221,0.0,-999.0,88,-99.99,,,0.00,weatherlink.com 1.10,2013-11-07 06:26:00,
2013-11-07 00:41:00,28.5,25.0,30.10,SSW,195,0.0,-999.0,86,-99.99,,,0.00,weatherlink.com 1.10,2013-11-07 06:41:00,
2013-11-07 00:56:00,28.8,25.0,30.10,SSW,205,0.0,-999.0,85,-99.99,,,0.00,weatherlink.com 1.10,2013-11-07 06:56:00,
2013-11-07 01:11:00,29.1,25.0,30.10,SSW,205,0.0,-999.0,84,-99.99,,,0.00,weatherlink.com 1.10,2013-11-07 07:11:00,
2013-11-07 01:26:00,29.0,25.0,30.11,SSW,205,0.0,-999.0,84,-99.99,,,0.00,weatherlink.com 1.10,2013-11-07 07:26:00,
2013-11-07 01:41:00,28.5,24.0,30.11,SSW,205,0.0,-999.0,83,-99.99,,,0.00,weatherlink.com 1.10,2013-11-07 07:41:00,
2013-11-07 01:56:00,27.9,23.0,30.11,SSW,205,0.0,-999.0,83,-99.99,,,0.00,weatherlink.com 1.10,2013-11-07 07:56:00,
2013-11-07 02:11:00,27.3,23.0,30.10,SSW,205,0.0,-999.0,83,-99.99,,,0.00,weatherlink.com 1.10,2013-11-07 08:11:00,
2013-11-07 02:26:00,26.6,22.0,30.11,SSW,205,1.0,-999.0,83,-99.99,,,0.00,weatherlink.com 1.10,2013-11-07 08:26:00,
2013-11-07 02:41:00,26.1,22.0,30.11,SSW,205,0.0,-999.0,85,-99.99,,,0.00,weatherlink.com 1.10,2013-11-07 08:41:00,
2013-11-07 02:56:00,26.0,23.0,30.11,SSW,203,0.0,-999.0,87,-99.99,,,0.00,weatherlink.com 1.10,2013-11-07 08:56:00,
2013-11-07 03:11:00,25.8,23.0,30.11,SSW,203,0.0,-999.0,87,-99.99,,,0.00,weatherlink.com 1.10,2013-11-07 09:11:00,
2013-11-07 03:26:00,25.8,23.0,30.10,SSW,203,0.0,-999.0,88,-99.99,,,0.00,weatherlink.com 1.10,2013-11-07 09:26:00,
2013-11-07 03:41:00,25.7,23.0,30.10,SSW,203,0.0,-999.0,88,-99.99,,,0.00,weatherlink.com 1.10,2013-11-07 09:41:00,
2013-11-07 03:56:00,25.6,23.0,30.10,SSW,203,0.0,-999.0,88,-99.99,,,0.00,weatherlink.com 1.10,2013-11-07 09:56:00,
2013-11-07 04:11:00,25.6,23.0,30.11,SSW,203,0.0,-999.0,88,-99.99,,,0.00,weatherlink.com 1.10,2013-11-07 10:11:00,
2013-11-07 04:26:00,25.6,23.0,30.12,SSW,203,0.0,-999.0,89,-99.99,,,0.00,weatherlink.com 1.10,2013-11-07 10:26:00,
2013-11-07 04:41:00,25.7,23.0,30.11,SSW,204,0.0,-999.0,90,-99.99,,,0.00,weatherlink.com 1.10,2013-11-07 10:41:00,
2013-11-07 04:56:00,25.8,23.0,30.12,SSW,204,0.0,-999.0,90,-99.99,,,0.00,weatherlink.com 1.10,2013-11-07 10:56:00,
2013-11-07 05:11:00,25.8,23.0,30.12,SSW,204,0.0,-999.0,90,-99.99,,,0.00,weatherlink.com 1.10,2013-11-07 11:11:00,
2013-11-07 05:26:00,25.7,23.0,30.12,SSW,204,0.0,-999.0,90,-99.99,,,0.00,weatherlink.com 1.10,2013-11-07 11:26:00,
2013-11-07 05:41:00,25.6,23.0,30.12,SSW,204,0.0,-999.0,90,-99.99,,,0.00,weatherlink.com 1.10,2013-11-07 11:41:00,
2013-11-07 05:56:00,25.4,23.0,30.12,SSW,206,0.0,-999.0,90,-99.99,,,0.00,weatherlink.com 1.10,2013-11-07 11:56:00,
2013-11-07 06:11:00,25.4,23.0,30.13,SSW,206,0.0,-999.0,90,-99.99,,,0.00,weatherlink.com 1.10,2013-11-07 12:11:00,
2013-11-07 06:26:00,25.4,23.0,30.13,West,268,0.0,-999.0,91,-99.99,,,0.00,weatherlink.com 1.10,2013-11-07 12:26:00,
2013-11-07 06:41:00,25.3,23.0,30.14,WSW,238,0.0,-999.0,91,-99.99,,,0.00,weatherlink.com 1.10,2013-11-07 12:41:00,
2013-11-07 06:56:00,25.3,23.0,30.14,West,269,0.0,-999.0,91,-99.99,,,0.00,weatherlink.com 1.10,2013-11-07 12:56:00,
2013-11-07 07:12:00,25.1,23.0,30.15,West,269,0.0,-999.0,91,-99.99,,,0.00,weatherlink.com 1.10,2013-11-07 13:12:00,
2013-11-07 07:27:00,25.1,23.0,30.16,SW,222,3.0,-999.0,91,-99.99,,,0.00,weatherlink.com 1.10,2013-11-07 13:27:00,
2013-11-07 07:42:00,25.3,23.0,30.16,West,274,0.0,-999.0,92,-99.99,,,0.00,weatherlink.com 1.10,2013-11-07 13:42:00,
2013-11-07 07:57:00,25.7,24.0,30.16,SW,231,0.0,-999.0,92,-99.99,,,0.00,weatherlink.com 1.10,2013-11-07 13:57:00,
2013-11-07 08:12:00,26.3,25.0,30.16,North,349,1.0,-999.0,93,-99.99,,,0.00,weatherlink.com 1.10,2013-11-07 14:12:00,
2013-11-07 08:27:00,26.9,25.0,30.17,SW,229,2.0,-999.0,93,-99.99,,,0.00,weatherlink.com 1.10,2013-11-07 14:27:00,
2013-11-07 08:42:00,27.5,26.0,30.17,West,281,1.0,-999.0,94,-99.99,,,0.00,weatherlink.com 1.10,2013-11-07 14:42:00,
2013-11-07 08:57:00,27.9,26.0,30.17,NNW,342,0.0,-999.0,94,-99.99,,,0.00,weatherlink.com 1.10,2013-11-07 14:57:00,
2013-11-07 09:12:00,28.2,27.0,30.17,SW,228,1.0,-999.0,93,-99.99,,,0.00,weatherlink.com 1.10,2013-11-07 15:12:00,
2013-11-07 09:27:00,28.5,27.0,30.17,WNW,296,0.0,-999.0,93,-99.99,,,0.00,weatherlink.com 1.10,2013-11-07 15:27:00,
2013-11-07 09:42:00,28.8,27.0,30.17,NNE,31,0.0,-999.0,93,-99.99,,,0.00,weatherlink.com 1.10,2013-11-07 15:42:00,
2013-11-07 09:57:00,29.1,27.0,30.17,WNW,282,0.0,-999.0,92,-99.99,,,0.00,weatherlink.com 1.10,2013-11-07 15:57:00,
2013-11-07 10:12:00,29.5,28.0,30.18,SW,217,0.0,-999.0,92,-99.99,,,0.00,weatherlink.com 1.10,2013-11-07 16:12:00,
2013-11-07 10:27:00,30.0,28.0,30.17,NNW,345,1.0,-999.0,92,-99.99,,,0.00,weatherlink.com 1.10,2013-11-07 16:27:00,
2013-11-07 10:42:00,30.6,28.0,30.18,NNE,24,0.0,-999.0,91,-99.99,,,0.00,weatherlink.com 1.10,2013-11-07 16:42:00,
2013-11-07 10:57:00,31.0,28.0,30.18,WSW,240,3.0,-999.0,89,-99.99,,,0.00,weatherlink.com 1.10,2013-11-07 16:57:00,
2013-11-07 11:13:00,31.5,28.0,30.19,West,265,0.0,-999.0,86,-99.99,,,0.00,weatherlink.com 1.10,2013-11-07 17:13:00,
2013-11-07 11:28:00,31.8,28.0,30.18,North,351,0.0,-999.0,85,-99.99,,,0.00,weatherlink.com 1.10,2013-11-07 17:28:00,
2013-11-07 11:43:00,32.4,28.0,30.17,WSW,240,2.0,-999.0,84,-99.99,,,0.00,weatherlink.com 1.10,2013-11-07 17:43:00,
2013-11-07 11:58:00,32.9,28.0,30.17,NNW,338,1.0,-999.0,82,-99.99,,,0.00,weatherlink.com 1.10,2013-11-07 17:58:00,
2013-11-07 12:13:00,33.8,28.0,30.16,SW,223,1.0,-999.0,79,-99.99,,,0.00,weatherlink.com 1.10,2013-11-07 18:13:00,
2013-11-07 12:28:00,34.0,28.0,30.15,SSW,196,0.0,-999.0,78,-99.99,,,0.00,weatherlink.com 1.10,2013-11-07 18:28:00,
2013-11-07 12:43:00,34.3,28.0,30.15,WNW,288,0.0,-999.0,77,-99.99,,,0.00,weatherlink.com 1.10,2013-11-07 18:43:00,
2013-11-07 12:58:00,34.7,28.0,30.15,North,350,0.0,-999.0,76,-99.99,,,0.00,weatherlink.com 1.10,2013-11-07 18:58:00,
2013-11-07 13:13:00,35.0,28.0,30.15,West,271,2.0,-999.0,76,-99.99,,,0.00,weatherlink.com 1.10,2013-11-07 19:13:00,
2013-11-07 13:28:00,35.2,28.0,30.15,SW,223,0.0,-999.0,75,-99.99,,,0.00,weatherlink.com 1.10,2013-11-07 19:28:00,
2013-11-07 13:43:00,34.9,28.0,30.15,WSW,251,2.0,-999.0,76,-99.99,,,0.00,weatherlink.com 1.10,2013-11-07 19:43:00,
2013-11-07 13:58:00,34.9,28.0,30.14,SW,215,0.0,-999.0,76,-99.99,,,0.00,weatherlink.com 1.10,2013-11-07 19:58:00,
2013-11-07 14:13:00,34.9,28.0,30.14,SW,222,1.0,-999.0,77,-99.99,,,0.00,weatherlink.com 1.10,2013-11-07 20:13:00,
2013-11-07 14:28:00,35.2,28.0,30.14,West,267,0.0,-999.0,76,-99.99,,,0.00,weatherlink.com 1.10,2013-11-07 20:28:00,
2013-11-07 14:43:00,35.5,28.0,30.14,West,272,0.0,-999.0,75,-99.99,,,0.00,weatherlink.com 1.10,2013-11-07 20:43:00,
2013-11-07 14:58:00,35.5,28.0,30.14,NNW,329,0.0,-999.0,75,-99.99,,,0.00,weatherlink.com 1.10,2013-11-07 20:58:00,
2013-11-07 15:13:00,35.3,28.0,30.14,ENE,69,0.0,-999.0,74,-99.99,,,0.00,weatherlink.com 1.10,2013-11-07 21:13:00,
2013-11-07 15:28:00,35.2,28.0,30.14,NW,315,0.0,-999.0,75,-99.99,,,0.00,weatherlink.com 1.10,2013-11-07 21:28:00,
2013-11-07 15:43:00,35.0,28.0,30.14,NW,315,0.0,-999.0,76,-99.99,,,0.00,weatherlink.com 1.10,2013-11-07 21:43:00,
2013-11-07 15:58:00,34.9,28.0,30.14,SW,227,0.0,-999.0,76,-99.99,,,0.00,weatherlink.com 1.10,2013-11-07 21:58:00,
2013-11-07 16:13:00,34.7,28.0,30.15,SW,227,0.0,-999.0,77,-99.99,,,0.00,weatherlink.com 1.10,2013-11-07 22:13:00,
2013-11-07 16:28:00,34.6,28.0,30.15,WSW,250,0.0,-999.0,77,-99.99,,,0.00,weatherlink.com 1.10,2013-11-07 22:28:00,
2013-11-07 16:43:00,34.3,28.0,30.15,WSW,249,0.0,-999.0,78,-99.99,,,0.00,weatherlink.com 1.10,2013-11-07 22:43:00,
2013-11-07 16:58:00,34.1,28.0,30.15,ENE,76,0.0,-999.0,78,-99.99,,,0.00,weatherlink.com 1.10,2013-11-07 22:58:00,
2013-11-07 17:13:00,33.7,27.0,30.15,East,85,0.0,-999.0,77,-99.99,,,0.00,weatherlink.com 1.10,2013-11-07 23:13:00,
2013-11-07 17:28:00,33.1,27.0,30.16,East,86,0.0,-999.0,77,-99.99,,,0.00,weatherlink.com 1.10,2013-11-07 23:28:00,
2013-11-07 17:43:00,32.4,26.0,30.16,West,269,0.0,-999.0,78,-99.99,,,0.00,weatherlink.com 1.10,2013-11-07 23:43:00,
2013-11-07 17:58:00,31.8,26.0,30.16,West,269,0.0,-999.0,78,-99.99,,,0.00,weatherlink.com 1.10,2013-11-07 23:58:00,
2013-11-07 18:13:00,31.0,25.0,30.16,West,269,0.0,-999.0,79,-99.99,,,0.00,weatherlink.com 1.10,2013-11-08 00:13:00,
2013-11-07 18:28:00,30.4,25.0,30.17,West,269,0.0,-999.0,80,-99.99,,,0.00,weatherlink.com 1.10,2013-11-08 00:28:00,
2013-11-07 18:43:00,30.0,25.0,30.17,West,269,0.0,-999.0,81,-99.99,,,0.00,weatherlink.com 1.10,2013-11-08 00:43:00,
2013-11-07 18:58:00,29.5,25.0,30.17,West,269,0.0,-999.0,82,-99.99,,,0.00,weatherlink.com 1.10,2013-11-08 00:58:00,
2013-11-07 19:14:00,29.1,25.0,30.17,West,269,0.0,-999.0,83,-99.99,,,0.00,weatherlink.com 1.10,2013-11-08 01:14:00,
2013-11-07 19:29:00,28.7,25.0,30.16,West,269,0.0,-999.0,84,-99.99,,,0.00,weatherlink.com 1.10,2013-11-08 01:29:00,
2013-11-07 19:44:00,28.4,25.0,30.17,West,269,0.0,-999.0,85,-99.99,,,0.00,weatherlink.com 1.10,2013-11-08 01:44:00,
2013-11-07 19:59:00,28.2,25.0,30.17,West,269,0.0,-999.0,86,-99.99,,,0.00,weatherlink.com 1.10,2013-11-08 01:59:00,
2013-11-07 20:14:00,28.1,25.0,30.16,West,269,0.0,-999.0,87,-99.99,,,0.00,weatherlink.com 1.10,2013-11-08 02:14:00,
2013-11-07 20:29:00,28.1,25.0,30.16,West,269,0.0,-999.0,88,-99.99,,,0.00,weatherlink.com 1.10,2013-11-08 02:29:00,
2013-11-07 20:44:00,28.1,25.0,30.16,West,269,0.0,-999.0,88,-99.99,,,0.00,weatherlink.com 1.10,2013-11-08 02:44:00,
2013-11-07 20:59:00,28.1,25.0,30.16,West,267,1.0,-999.0,89,-99.99,,,0.00,weatherlink.com 1.10,2013-11-08 02:59:00,
2013-11-07 21:14:00,28.2,26.0,30.17,West,264,0.0,-999.0,90,-99.99,,,0.00,weatherlink.com 1.10,2013-11-08 03:14:00,
2013-11-07 21:29:00,28.2,26.0,30.17,West,264,0.0,-999.0,90,-99.99,,,0.00,weatherlink.com 1.10,2013-11-08 03:29:00,
2013-11-07 21:44:00,28.2,26.0,30.18,South,191,0.0,-999.0,90,-99.99,,,0.00,weatherlink.com 1.10,2013-11-08 03:44:00,
2013-11-07 21:59:00,28.2,26.0,30.18,SSW,210,0.0,-999.0,90,-99.99,,,0.00,weatherlink.com 1.10,2013-11-08 03:59:00,
2013-11-07 22:14:00,28.1,26.0,30.17,SSW,210,0.0,-999.0,90,-99.99,,,0.00,weatherlink.com 1.10,2013-11-08 04:14:00,
2013-11-07 22:29:00,27.6,25.0,30.17,SSW,210,0.0,-999.0,89,-99.99,,,0.00,weatherlink.com 1.10,2013-11-08 04:29:00,
2013-11-07 22:44:00,27.0,24.0,30.17,SSW,210,0.0,-999.0,89,-99.99,,,0.00,weatherlink.com 1.10,2013-11-08 04:44:00,
2013-11-07 22:59:00,26.4,23.0,30.17,SSW,210,0.0,-999.0,88,-99.99,,,0.00,weatherlink.com 1.10,2013-11-08 04:59:00,
2013-11-07 23:14:00,25.8,23.0,30.17,SSW,210,0.0,-999.0,88,-99.99,,,0.00,weatherlink.com 1.10,2013-11-08 05:14:00,
2013-11-07 23:29:00,25.4,22.0,30.17,SSW,210,0.0,-999.0,88,-99.99,,,0.00,weatherlink.com 1.10,2013-11-08 05:29:00,
2013-11-07 23:44:00,25.0,22.0,30.16,SSW,210,0.0,-999.0,88,-99.99,,,0.00,weatherlink.com 1.10,2013-11-08 05:44:00,
2013-11-07 23:59:00,24.5,22.0,30.16,SSW,210,0.0,-999.0,88,-99.99,,,0.00,weatherlink.com 1.10,2013-11-08 05:59:00,